Robstown, TX

3:14 PM CDT on July 23, 2017 (GMT -0500)
Robstown

Weather History for KRBO - October, 2012

Change the Weather History Date:

Friday, October 19, 2012

  Actual Average (KCRP) Record (KCRP)
Temperature  
Mean Temperature 78 °F -  
Max Temperature 87 °F 81 °F 94 °F (2004)
Min Temperature 70 °F 63 °F 47 °F (1989)
Cooling Degree Days 13    
Growing Degree Days 28 (Base 50)    
Moisture  
Dew Point 54 °F    
Average Humidity 45    
Maximum Humidity 66    
Minimum Humidity 27    
Precipitation  
Precipitation 0.00 in - - ()
Sea Level Pressure  
Sea Level Pressure 29.96 in    
Wind  
Wind Speed 10 mph (ENE)    
Max Wind Speed 15 mph    
Max Gust Speed 20 mph    
Visibility 10 miles    
Events      
Averages and records for this station are not official NWS values.
T = Trace of Precipitation, MM = Missing Value Source: NWS Daily Summary

Daily Weather History Graph

Daily Weather History Graph

Search for Another Location

Airport or City:

Trip Planner

Search our weather history database for the weather conditions in past years. The results will help you decide how hot, cold, wet, or windy it might be!

Date:

Astronomy

Oct. 19, 2012 Rise Set
Actual Time 7:33 AM CDT 6:57 PM CDT
Civil Twilight 7:09 AM CDT 7:20 PM CDT
Nautical Twilight 6:42 AM CDT 7:48 PM CDT
Astronomical Twilight 6:15 AM CDT 8:15 PM CDT
Moon 12:00 PM CDT (10/19) 10:53 PM CDT (10/19)
Length of Visible Light 12h 11m
Length of Day
11h 23m
Waxing Crescent, 24% of the Moon is Illuminated
Oct 19
Waxing Crescent
Oct 21
First Quarter
Oct 29
Full
Nov 6
Last Quarter
Nov 13
New

Hourly Weather History & Observations

Time (CDT) Temp. Heat Index Dew Point Humidity Pressure Visibility Wind Dir Wind Speed Gust Speed Precip Events Conditions
1:55 AM 73.4 °F - 55.4 °F 53% 29.94 in 10.0 mi NNE 9.2 mph - N/A   Mostly Cloudy
2:15 AM 73.8 °F - 54.7 °F 51% 29.94 in 10.0 mi NNE 8.1 mph - N/A   Overcast
2:35 AM 73.9 °F - 54.3 °F 50% 29.94 in 10.0 mi NNE 8.1 mph - N/A   Overcast
2:55 AM 74.3 °F - 53.6 °F 48% 29.94 in 10.0 mi NNE 10.4 mph - N/A   Overcast
3:15 AM 74.3 °F - 53.2 °F 48% 29.94 in 10.0 mi NE 9.2 mph - N/A   Overcast
3:35 AM 73.9 °F - 52.7 °F 47% 29.93 in 10.0 mi NE 8.1 mph - N/A   Overcast
3:55 AM 73.4 °F - 52.0 °F 47% 29.93 in 10.0 mi NE 9.2 mph 17.3 mph N/A   Mostly Cloudy
4:15 AM 73.6 °F - 51.8 °F 46% 29.93 in 10.0 mi NE 9.2 mph - N/A   Overcast
4:35 AM 73.6 °F - 51.8 °F 46% 29.93 in 10.0 mi NE 12.7 mph 18.4 mph N/A   Overcast
4:55 AM 73.4 °F - 51.8 °F 47% 29.93 in 10.0 mi NE 11.5 mph - N/A   Overcast
5:15 AM 73.4 °F - 51.6 °F 46% 29.94 in 10.0 mi NE 10.4 mph - N/A   Mostly Cloudy
5:35 AM 73.4 °F - 51.4 °F 46% 29.94 in 10.0 mi NE 9.2 mph 16.1 mph N/A   Mostly Cloudy
5:55 AM 72.7 °F - 51.8 °F 48% 29.95 in 10.0 mi NE 8.1 mph - N/A   Mostly Cloudy
6:15 AM 72.0 °F - 51.8 °F 49% 29.95 in 10.0 mi NE 10.4 mph - N/A   Scattered Clouds
6:35 AM 71.6 °F - 51.8 °F 50% 29.96 in 10.0 mi NE 9.2 mph 17.3 mph N/A   Scattered Clouds
6:55 AM 70.9 °F - 52.0 °F 51% 29.96 in 10.0 mi NE 9.2 mph - N/A   Clear
7:15 AM 70.7 °F - 52.5 °F 52% 29.96 in 10.0 mi NE 6.9 mph - N/A   Scattered Clouds
7:55 AM 70.7 °F - 52.7 °F 53% 29.97 in 10.0 mi NE 5.8 mph - N/A   Overcast
8:15 AM 70.9 °F - 52.7 °F 53% 29.97 in 10.0 mi NNE 8.1 mph - N/A   Overcast
8:35 AM 71.8 °F - 53.1 °F 52% 29.98 in 10.0 mi NE 8.1 mph - N/A   Mostly Cloudy
8:55 AM 72.5 °F - 53.2 °F 51% 29.98 in 10.0 mi NNE 8.1 mph - N/A   Scattered Clouds
9:15 AM 73.0 °F - 53.6 °F 50% 29.99 in 10.0 mi NNE 9.2 mph - N/A   Clear
9:35 AM 74.3 °F - 53.8 °F 49% 30.00 in 10.0 mi NE 9.2 mph - N/A   Clear
9:55 AM 75.2 °F - 54.1 °F 48% 30.01 in 10.0 mi NE 10.4 mph - N/A   Scattered Clouds
10:15 AM 77.0 °F - 53.8 °F 44% 30.02 in 10.0 mi ENE 10.4 mph 17.3 mph N/A   Clear
10:35 AM 78.8 °F - 54.9 °F 44% 30.02 in 10.0 mi ENE 11.5 mph - N/A   Scattered Clouds
10:55 AM 80.2 °F 80.4 °F 55.9 °F 43% 30.02 in 10.0 mi ENE 11.5 mph - N/A   Scattered Clouds
11:15 AM 81.1 °F 81.0 °F 55.8 °F 42% 30.02 in 10.0 mi ENE 10.4 mph 16.1 mph N/A   Scattered Clouds
11:35 AM 82.4 °F 81.8 °F 55.6 °F 40% 30.02 in 10.0 mi ENE 12.7 mph - N/A   Scattered Clouds
11:55 AM 83.3 °F 82.3 °F 54.9 °F 38% 30.01 in 10.0 mi NE 12.7 mph 18.4 mph N/A   Clear
12:15 PM 84.2 °F 83.2 °F 55.9 °F 38% 30.01 in 10.0 mi East 12.7 mph 16.1 mph N/A   Clear
12:35 PM 84.2 °F 83.0 °F 55.6 °F 37% 30.00 in 10.0 mi East 12.7 mph 18.4 mph N/A   Scattered Clouds
12:55 PM 84.4 °F 83.2 °F 55.2 °F 37% 29.99 in 10.0 mi East 15.0 mph 18.4 mph N/A   Clear
1:15 PM 85.8 °F 84.0 °F 53.2 °F 33% 29.99 in 10.0 mi East 12.7 mph - N/A   Clear
1:35 PM 85.5 °F - 52.9 °F 33% 29.98 in 10.0 mi East 12.7 mph 17.3 mph N/A   Clear
2:15 PM 86.2 °F - 52.0 °F 31% 29.96 in 10.0 mi ENE 11.5 mph - N/A   Scattered Clouds
2:35 PM 86.7 °F - 51.4 °F 30% 29.95 in 10.0 mi East 11.5 mph 18.4 mph N/A   Scattered Clouds
2:55 PM 86.5 °F - 51.1 °F 29% 29.94 in 10.0 mi ESE 12.7 mph 18.4 mph N/A   Scattered Clouds
3:15 PM 86.2 °F - 50.5 °F 29% 29.94 in 10.0 mi East 12.7 mph 19.6 mph N/A   Clear
3:35 PM 86.2 °F - 49.1 °F 28% 29.94 in 10.0 mi East 11.5 mph 16.1 mph N/A   Clear
3:55 PM 85.6 °F - 49.1 °F 28% 29.94 in 10.0 mi East 12.7 mph 19.6 mph N/A   Clear
4:15 PM 85.6 °F - 47.8 °F 27% 29.93 in 10.0 mi ESE 13.8 mph 19.6 mph N/A   Clear
4:35 PM 84.9 °F - 50.0 °F 30% 29.93 in 10.0 mi East 15.0 mph - N/A   Clear
4:55 PM 84.2 °F - 48.9 °F 29% 29.93 in 10.0 mi East 13.8 mph 19.6 mph N/A   Scattered Clouds
5:15 PM 84.2 °F - 48.4 °F 29% 29.93 in 10.0 mi East 15.0 mph - N/A   Scattered Clouds
5:35 PM 83.3 °F - 50.2 °F 32% 29.93 in 10.0 mi East 15.0 mph 18.4 mph N/A   Clear
5:55 PM 82.4 °F 81.4 °F 54.0 °F 37% 29.93 in 10.0 mi East 12.7 mph - N/A   Clear
6:15 PM 81.5 °F 81.1 °F 55.4 °F 41% 29.93 in 10.0 mi East 11.5 mph - N/A   Clear
6:55 PM 79.3 °F - 56.3 °F 45% 29.93 in 10.0 mi East 11.5 mph - N/A   Clear
7:15 PM 78.8 °F - 55.8 °F 45% 29.93 in 10.0 mi East 10.4 mph - N/A   Clear
7:35 PM 77.7 °F - 55.8 °F 47% 29.94 in 10.0 mi East 8.1 mph - N/A   Clear
7:55 PM 76.6 °F - 56.3 °F 49% 29.94 in 10.0 mi ESE 6.9 mph - N/A   Clear
8:15 PM 75.7 °F - 56.8 °F 52% 29.94 in 10.0 mi ESE 5.8 mph - N/A   Clear
8:35 PM 74.8 °F - 57.2 °F 54% 29.94 in 10.0 mi East 5.8 mph - N/A   Clear
8:55 PM 74.3 °F - 57.2 °F 55% 29.95 in 10.0 mi ESE 5.8 mph - N/A   Clear
9:15 PM 73.9 °F - 57.6 °F 56% 29.95 in 10.0 mi East 5.8 mph - N/A   Clear
9:35 PM 73.0 °F - 57.2 °F 57% 29.94 in 10.0 mi East 5.8 mph - N/A   Clear
9:55 PM 73.4 °F - 58.1 °F 59% 29.94 in 10.0 mi East 3.5 mph - N/A   Clear
10:15 PM 72.7 °F - 57.7 °F 59% 29.94 in 10.0 mi East 4.6 mph - N/A   Clear
10:35 PM 72.0 °F - 57.6 °F 60% 29.94 in 10.0 mi East 4.6 mph - N/A   Clear
10:55 PM 71.2 °F - 57.2 °F 61% 29.94 in 10.0 mi East 4.6 mph - N/A   Clear
11:35 PM 71.6 °F - 59.2 °F 65% 29.93 in 10.0 mi ESE 5.8 mph - N/A   Clear
11:55 PM 71.6 °F - 59.9 °F 66% 29.93 in 10.0 mi ESE 4.6 mph - N/A   Clear